EHI
19 16 11 9 10 9 7 6 5 4 3 3 3 4 5 5 3 2 2 3 3 3 3 3 3 3 3 1 0 0 0 0 0 0 0 0 0 0 0 0 0 0 0
20 16 11 9 9 9 8 6 5 4 4 4 4 4 4 4 3 3 3 4 4 3 3 3 3 3 3 2 0 0 0 0 0 0 0 0 0 0 0 0 0 0 0
20 17 13 10 9 9 8 7 6 6 6 5 5 4 3 3 3 3 4 5 5 4 3 3 3 3 3 2 0 0 0 0 0 0 0 0 0 0 0 0 0 0 0
21 19 15 11 10 9 8 8 7 7 6 5 4 3 3 3 3 3 3 4 4 4 3 3 3 3 3 2 0 0 0 0 0 0 0 0 0 0 0 0 0 0 0
25 23 18 12 9 7 7 8 8 7 6 4 3 3 3 3 3 3 3 3 3 3 3 3 3 3 2 1 0 0 0 0 0 0 0 0 0 0 0 0 0 0 0
32 28 22 15 10 8 7 7 7 6 5 4 3 3 3 3 3 3 3 3 3 3 3 3 3 2 1 0 0 0 0 0 0 0 0 0 0 0 0 0 0 0 0
33 29 24 18 13 10 8 7 7 6 4 3 3 3 3 3 2 1 1 3 3 3 3 2 1 1 0 0 0 0 0 0 0 0 0 0 0 0 0 0 0 0 0
29 25 21 18 16 12 10 8 7 6 4 3 3 3 3 3 2 0 1 2 3 3 2 1 0 0 0 0 0 0 0 0 0 0 0 0 0 0 0 0 0 0 0
26 22 18 16 16 15 12 10 9 6 4 3 3 3 3 3 2 0 1 2 3 3 1 0 0 0 0 0 0 0 0 0 0 0 0 0 0 0 0 0 0 0 0
25 21 17 16 17 16 13 10 8 6 5 4 3 3 3 3 1 0 1 2 3 2 1 0 0 0 0 0 0 0 0 0 0 0 0 0 0 0 0 0 0 0 0
23 20 16 15 16 13 10 6 4 3 3 3 3 2 2 2 1 0 1 2 2 1 0 0 0 0 0 0 0 0 0 0 0 0 0 0 0 0 0 0 0 0 0
23 19 15 13 11 8 5 3 2 2 2 2 2 1 1 1 0 0 0 1 1 0 0 0 0 0 0 0 0 0 0 0 0 0 0 0 0 0 0 0 0 0 0
24 20 15 12 9 5 3 3 3 3 3 3 2 1 0 0 0 0 0 0 0 0 0 0 0 0 0 0 0 0 0 0 0 0 0 0 0 0 0 0 0 0 0
24 20 16 14 11 6 3 3 4 5 5 4 3 1 1 1 0 0 0 0 0 0 0 0 0 0 0 0 0 0 0 0 0 0 0 0 0 0 0 0 0 0 0
22 20 17 15 11 6 4 3 3 4 5 4 3 2 2 1 0 0 0 0 0 0 0 0 0 0 0 0 0 0 0 0 0 0 0 0 0 0 0 0 0 0 0
21 19 16 13 9 6 5 4 3 3 3 2 1 2 2 1 0 0 0 0 0 0 0 0 0 0 0 0 0 0 0 0 0 0 0 0 0 0 0 0 0 0 0
16 16 15 12 8 6 5 4 3 1 1 0 0 1 1 0 0 0 0 0 0 0 0 0 0 0 0 0 0 0 0 0 0 0 0 0 0 0 0 0 0 0 0
10 10 11 10 7 4 4 3 1 0 0 0 0 0 0 0 0 0 0 0 0 0 0 0 0 0 0 0 0 0 0 0 0 0 0 0 0 0 0 0 0 0 0
6 6 7 6 3 1 1 1 0 0 0 0 0 0 0 0 0 0 0 0 0 0 0 0 0 0 0 0 0 0 0 0 0 0 0 0 0 0 0 0 0 0 0
4 4 3 3 1 0 0 0 0 0 0 0 0 0 0 0 0 0 0 0 0 0 0 0 0 0 0 0 0 0 0 0 0 0 0 0 0 0 0 0 0 0 0
3 3 2 3 2 1 0 0 0 0 0 0 0 0 0 0 0 0 0 0 0 0 0 0 0 0 0 0 0 0 0 0 0 0 0 0 0 0 0 0 0 0 0
3 3 3 3 3 2 1 0 0 0 0 0 0 0 0 0 0 0 0 0 0 0 0 0 0 0 0 0 0 0 0 0 0 0 0 0 0 0 0 0 0 0 0
1 2 3 3 3 3 2 1 0 0 0 0 0 0 0 0 0 0 0 0 0 0 0 0 0 0 0 0 0 0 0 0 0 0 0 0 0 0 0 0 0 0 0
0 1 2 2 3 3 3 2 1 0 0 0 0 0 0 0 0 0 0 0 0 0 0 0 0 0 0 0 0 0 0 0 0 0 0 0 0 0 0 0 0 0 0
0 0 1 1 1 3 3 3 2 1 0 0 0 0 0 0 0 0 0 0 0 0 0 0 0 0 0 0 0 0 0 0 0 0 0 0 0 0 0 0 0 0 0
0 0 0 0 1 2 3 3 3 2 1 0 0 0 0 0 0 0 0 0 0 0 0 0 0 0 0 0 0 0 0 0 0 0 0 0 0 0 0 0 0 0 0
Wind_Speed
5 5 5 4 4 4 4 3 3 3 3 3 2 2 2 1 1 1 0 1 1 1 1 2 2 1 1 1 2 2 2 2 2 1 0 0 1 1 2 2 2 2 2
5 4 4 4 4 4 4 3 3 3 2 3 3 2 2 1 1 1 1 1 1 2 2 2 1 1 1 1 1 2 2 2 3 3 1 1 1 1 1 2 2 2 2
5 5 4 4 4 4 4 3 3 3 3 3 3 3 2 1 1 1 1 1 1 1 1 2 2 2 1 1 2 2 1 2 2 3 2 1 1 1 1 2 2 2 2
5 5 5 5 4 4 4 4 3 3 3 2 2 2 2 1 1 1 1 1 0 0 0 1 1 2 2 2 2 2 2 2 2 3 2 1 1 1 1 1 1 2 2
5 5 5 4 4 4 4 4 3 3 3 3 2 2 1 1 0 1 1 1 1 0 0 0 0 1 1 2 2 2 3 3 3 3 2 1 1 1 1 0 0 1 1
6 5 5 5 5 5 4 4 4 3 3 3 2 2 1 0 0 2 2 1 1 1 0 0 0 0 1 2 2 2 4 4 4 3 2 2 2 2 1 1 1 0 0
7 6 5 5 5 5 5 4 4 3 3 2 2 2 1 0 1 1 2 2 1 1 1 0 0 1 1 1 2 2 2 2 4 4 3 3 3 3 3 2 1 1 1
6 6 6 6 5 5 5 4 4 3 3 2 2 1 1 0 0 2 3 2 1 1 1 1 1 1 1 2 2 3 2 1 1 2 2 3 2 2 3 2 2 1 0
6 6 6 7 6 6 5 5 4 3 2 2 2 2 1 1 1 2 3 2 1 1 1 1 1 1 2 3 3 3 2 2 3 3 2 2 3 3 3 3 2 1 0
6 6 6 6 7 6 6 5 3 3 3 2 1 1 1 0 0 1 2 2 1 1 1 2 3 2 3 4 3 3 2 1 2 3 3 3 3 3 4 3 3 2 1
5 5 5 5 6 5 4 4 4 4 3 2 2 1 0 0 0 1 2 2 2 2 1 1 1 3 4 4 3 2 2 2 2 3 2 2 2 1 1 1 1 2 2
6 5 5 5 5 5 5 5 5 5 4 3 2 1 0 0 1 1 2 2 3 2 1 1 1 2 3 4 3 3 3 4 3 2 2 1 1 0 0 1 1 1 1
6 6 5 5 4 4 5 5 4 4 3 3 2 2 1 0 1 1 2 2 3 2 2 2 2 3 3 2 3 3 3 2 2 2 1 0 0 1 0 0 0 0 1
6 6 5 5 4 3 3 3 4 4 4 3 3 3 2 1 1 1 1 1 2 2 2 2 3 3 3 2 2 2 1 1 1 1 0 0 1 1 1 1 0 0 1
6 5 4 4 5 4 3 2 3 3 4 5 4 3 3 2 2 3 2 2 2 2 2 2 2 2 1 1 1 1 1 1 0 0 0 0 0 0 0 1 1 0 0
5 5 4 3 3 4 4 2 3 2 2 3 3 3 2 2 2 3 3 3 2 4 3 2 1 1 1 1 1 1 1 1 1 1 1 1 1 1 1 0 0 1 1
5 5 4 4 4 4 4 4 2 2 3 2 2 4 4 3 3 4 4 3 3 5 2 2 2 2 2 2 2 2 2 2 2 2 2 2 1 1 1 1 1 1 2
4 5 5 3 3 3 4 3 3 3 2 0 0 2 3 3 3 4 4 4 2 2 2 2 3 2 2 2 2 2 2 2 2 2 2 2 2 2 2 2 2 3 3
3 3 3 3 3 3 3 3 3 3 2 1 1 0 2 3 3 3 4 2 2 3 3 3 3 3 3 3 3 2 2 2 2 2 3 3 3 3 3 3 3 4 4
3 4 4 3 3 3 2 3 3 2 2 2 2 1 2 2 1 2 3 3 3 3 3 3 3 3 3 2 2 2 2 2 3 3 3 3 3 3 4 4 4 4 4
2 3 5 3 3 2 2 2 3 2 2 2 2 2 3 3 3 3 3 3 3 3 3 3 2 2 2 2 2 2 3 3 3 3 3 3 3 4 4 4 4 4 4
2 3 3 3 2 2 2 2 2 2 2 2 1 1 3 2 1 1 1 2 2 2 2 2 2 2 2 2 2 2 3 3 3 3 3 3 3 4 4 4 4 4 4
3 3 2 2 2 2 2 1 2 2 2 2 2 1 2 1 1 1 1 1 0 0 0 1 1 1 1 1 1 2 2 3 3 3 3 3 3 3 3 4 4 4 4
3 3 3 2 2 2 1 2 2 2 2 2 2 1 1 1 1 1 1 0 0 0 0 0 1 1 1 1 1 1 1 2 2 2 3 3 3 3 3 3 4 4 4
2 2 3 2 2 2 2 2 2 2 2 2 1 1 1 1 1 1 0 0 1 1 1 1 0 0 0 0 1 1 2 2 2 2 2 2 3 3 3 4 3 4 4
2 2 2 2 2 2 2 2 2 2 2 2 1 1 1 1 1 0 0 1 1 1 1 1 1 1 1 1 2 2 2 2 2 3 2 2 2 2 3 3 4 3 3
Wind_Direction
191 192 188 185 183 180 187 196 191 183 169 164 168 156 151 146 144 146 194 215 220 242 224 211 233 216 197 193 180 180 184 179 201 211 177 45 57 47 26 29 31 40 63
183 181 179 171 169 174 184 187 174 170 166 161 156 147 152 140 129 146 202 229 228 235 229 209 226 188 184 184 177 186 196 190 180 187 180 129 77 69 47 39 32 39 50
168 172 170 167 170 176 175 167 158 156 151 145 143 146 149 144 142 171 179 211 215 224 213 198 201 171 181 181 180 185 190 182 171 165 163 131 94 86 57 41 32 20 35
166 169 171 174 173 165 156 152 153 153 147 141 134 138 137 137 151 182 169 158 145 131 166 180 189 188 196 191 184 188 172 161 150 145 139 138 134 122 113 66 16 12 15
163 171 177 168 155 148 149 152 149 146 145 136 124 115 112 131 170 175 171 163 155 132 69 160 153 154 163 174 179 183 172 165 156 153 152 147 159 168 187 181 216 343 356
164 171 165 155 151 154 154 152 144 137 129 122 122 122 107 95 98 144 146 148 142 148 225 300 63 131 135 131 133 154 164 167 168 163 171 183 200 196 168 164 153 158 292
163 161 158 157 157 159 157 153 152 149 141 135 133 136 152 27 87 145 149 146 140 150 157 120 73 64 108 118 117 116 122 136 163 166 178 196 196 194 180 182 195 207 245
162 161 161 159 162 160 155 158 159 151 152 155 160 164 157 284 139 153 148 146 120 109 111 129 131 67 90 118 116 103 91 84 163 173 188 198 193 185 190 190 181 147 352
167 170 170 167 164 162 167 171 163 154 157 167 164 166 174 261 222 162 152 141 121 91 74 80 97 89 77 112 118 112 85 51 57 75 90 106 127 138 143 130 131 144 238
175 174 169 165 165 170 174 169 154 150 157 152 136 131 159 251 244 153 152 148 134 106 58 56 63 71 84 105 119 120 105 65 68 71 73 77 95 119 138 158 166 170 178
160 156 160 163 164 163 160 151 145 144 139 136 137 119 129 164 73 131 141 153 159 136 105 60 49 76 89 93 101 107 126 115 99 93 82 72 71 85 117 163 195 188 192
150 152 160 161 158 152 151 146 143 146 145 151 152 137 31 27 46 105 131 152 153 138 139 127 95 101 99 92 90 81 92 98 97 91 84 74 64 30 300 232 221 239 260
153 155 157 148 144 146 152 151 147 151 156 166 173 183 209 323 22 94 122 131 131 128 116 104 98 98 97 88 79 90 100 99 101 99 99 39 300 292 349 5 337 302 326
157 155 154 146 136 132 139 149 155 167 172 175 185 194 198 180 221 190 151 142 130 120 105 94 94 88 84 78 78 77 85 105 126 139 179 333 27 63 80 67 59 7 330
150 144 144 146 145 143 140 147 168 185 188 181 191 190 184 201 220 188 172 176 172 163 128 96 82 82 81 66 63 63 75 85 95 359 89 58 37 29 359 7 29 38 285
143 142 145 150 150 146 139 111 64 108 140 173 174 167 179 188 163 162 169 166 157 148 134 136 157 178 191 209 222 224 211 214 224 220 215 224 238 253 284 330 332 274 271
152 153 150 160 164 159 156 155 145 72 77 113 154 168 171 169 166 168 168 153 145 149 153 185 203 219 227 227 226 226 231 235 224 217 224 233 236 238 240 250 251 263 266
147 152 152 162 167 162 162 163 161 158 158 178 218 194 179 171 166 162 159 139 132 158 198 211 219 224 229 233 232 234 237 232 219 226 233 236 234 232 236 245 242 249 257
135 141 144 147 150 157 161 159 157 162 171 177 162 175 177 162 150 152 155 170 189 199 210 221 227 229 232 235 235 235 234 233 232 232 240 242 237 234 241 244 244 246 245
126 137 146 146 146 153 160 159 161 169 178 190 200 195 155 144 164 179 192 207 213 218 218 221 226 230 232 232 232 234 238 239 238 239 242 243 239 237 244 248 246 246 247
134 136 137 136 149 163 174 176 174 180 189 197 216 203 174 182 196 202 204 213 222 227 225 223 225 229 235 234 231 237 245 250 248 246 246 247 244 243 247 249 250 251 255
133 130 138 152 159 164 171 173 170 179 188 184 179 150 162 156 169 186 207 224 227 225 220 214 221 228 230 231 231 232 240 251 255 253 253 252 250 250 252 252 250 250 252
127 130 133 138 143 147 154 160 171 180 179 162 149 133 136 153 174 180 198 214 211 206 191 193 213 234 241 233 233 234 245 257 258 255 253 253 253 252 250 253 253 251 253
122 130 132 133 134 146 154 155 154 151 144 137 133 138 150 156 159 162 194 188 158 145 147 178 199 200 209 243 271 264 266 276 270 253 248 251 257 258 256 259 261 260 258
117 124 128 130 136 135 131 128 125 127 128 134 141 144 146 143 142 145 165 125 115 109 97 104 136 128 102 322 336 344 338 313 292 288 262 249 256 261 264 265 268 270 266
111 116 118 120 127 131 134 136 139 144 142 144 147 146 143 143 138 129 104 93 98 85 65 51 50 58 46 17 1 359 353 339 321 303 286 271 272 275 279 275 280 275 275